GFSFLT2_sfc_dewp_129.txt.gz
Dewpoint
68 69 70 70 70 70 70 70 70 70 70 70 71 71 70 71 71 71 71 71 71 71 70 69 69 69 68 67 66 66 59 63
67 67 68 68 69 69 69 69 69 70 70 70 70 70 70 70 70 71 71 71 71 70 69 69 69 68 68 67 66 66 63 64
66 67 67 68 68 70 70 70 69 69 70 69 68 70 70 70 69 69 70 70 70 69 69 68 68 68 68 67 66 66 65 65
67 66 66 67 68 68 68 69 70 70 70 69 70 70 69 70 69 68 69 68 69 68 68 67 67 67 67 67 65 65 65 65
55 59 65 67 68 68 67 68 69 69 69 70 70 69 69 69 68 68 68 68 69 68 66 66 66 66 66 65 65 65 64 64
50 52 54 56 58 60 66 68 68 68 68 69 69 69 68 68 68 69 69 69 68 68 67 67 66 66 65 65 65 64 64 64
47 47 49 52 53 56 57 59 61 66 68 68 68 68 68 68 67 68 68 68 68 67 66 66 65 65 65 65 64 64 64 64
43 43 44 47 49 51 54 56 59 61 63 64 67 68 67 68 68 68 67 68 67 66 66 65 65 66 65 65 64 64 63 64
38 39 38 40 44 47 50 52 55 57 59 60 60 61 66 67 67 68 67 67 67 66 66 66 64 65 64 65 65 64 63 64
34 35 35 35 37 41 43 48 50 52 53 56 59 59 59 60 66 67 67 68 67 67 66 65 64 64 64 64 64 64 63 63
31 32 32 33 34 37 39 44 46 48 49 52 53 54 58 59 64 65 65 66 67 67 66 65 64 64 64 63 64 64 63 63
29 30 30 31 33 34 35 39 39 41 45 47 50 53 55 58 60 60 62 62 65 66 66 66 65 64 63 63 63 63 63 63
27 28 29 30 31 30 31 32 32 38 37 41 47 50 52 54 57 57 56 62 62 64 65 65 64 64 61 61 61 61 62 63
27 27 28 28 29 29 30 30 32 33 37 40 42 46 47 46 49 52 55 59 62 62 64 63 64 65 61 61 59 61 62 62
28 28 28 29 29 29 29 29 30 31 32 33 36 38 41 46 47 49 53 57 61 60 61 63 61 63 63 59 57 57 59 61
29 29 28 29 30 29 28 28 28 29 30 31 33 36 39 42 44 45 49 53 56 60 61 60 61 61 62 63 61 59 57 56
28 28 29 29 29 29 29 28 29 30 30 31 32 34 36 39 42 45 47 50 54 58 60 59 60 61 61 61 61 60 59 56
27 30 28 28 28 28 28 28 29 30 31 31 32 34 35 37 39 41 46 50 53 57 59 61 61 61 61 61 59 58 57 57
29 29 27 27 27 27 28 28 30 33 33 34 34 35 36 37 38 41 42 44 47 48 50 56 61 62 61 61 61 60 60 59
29 28 28 28 29 30 30 31 34 34 35 36 36 37 37 38 39 39 40 42 44 46 48 50 55 61 61 62 61 62 61 61

GFSFLT2_sfc_dewp_132.txt.gz
Dewpoint
68 68 69 70 70 70 70 70 70 70 70 70 71 71 70 71 71 71 71 71 71 71 70 69 69 69 68 67 66 65 64 66
67 67 68 68 68 68 68 69 69 69 70 70 69 69 70 70 70 71 71 71 71 70 69 69 69 68 68 67 66 65 60 63
67 66 67 67 67 69 69 70 68 69 69 69 68 69 68 69 69 69 70 69 70 70 69 68 68 68 68 67 66 66 63 64
55 58 60 66 68 67 67 69 69 70 70 69 70 70 70 69 69 68 69 68 69 68 68 67 67 67 67 67 66 66 65 65
48 49 53 54 55 60 66 68 69 69 68 69 70 69 69 70 68 68 68 68 69 68 67 66 66 66 66 65 65 65 65 65
46 45 46 49 52 54 55 58 61 66 67 68 68 68 67 68 68 68 68 69 69 68 68 66 66 65 65 65 65 65 64 64
38 39 39 43 46 49 52 53 57 60 63 62 65 68 67 68 68 68 67 67 68 67 67 66 66 66 65 65 64 64 64 64
34 35 35 36 40 43 47 50 52 55 57 59 61 62 63 67 67 68 67 67 67 67 66 66 65 65 65 65 64 64 64 64
32 33 32 32 34 38 41 46 49 50 51 54 56 59 59 60 63 66 67 68 67 67 66 65 65 65 64 65 65 64 64 63
30 30 31 31 32 35 35 41 46 46 46 51 52 51 55 58 59 63 63 64 67 67 66 65 65 64 64 64 64 64 64 64
28 29 29 30 31 33 33 37 42 38 44 45 46 48 54 55 57 59 63 61 57 65 66 65 64 64 64 64 64 64 64 64
28 29 29 30 30 30 31 33 33 34 38 39 42 48 48 52 53 55 57 59 58 60 62 64 64 64 64 63 64 64 63 64
28 29 30 29 29 29 29 30 30 33 33 37 41 39 46 47 46 49 51 54 56 60 60 61 61 63 62 62 63 63 63 63
29 29 29 29 29 29 29 29 30 31 33 34 35 39 38 39 42 46 48 50 54 58 59 58 59 61 61 60 58 60 61 62
28 28 29 29 30 29 29 29 30 30 30 31 32 33 36 38 41 44 45 48 50 53 59 59 57 59 60 60 56 55 59 61
27 28 29 28 28 28 28 28 28 29 30 31 32 33 35 37 38 39 42 43 46 50 53 61 60 56 60 63 62 60 56 56
27 29 27 27 27 27 28 28 28 30 30 31 32 33 35 36 38 39 41 44 45 48 52 54 59 59 57 58 58 59 60 57
27 29 27 28 28 28 27 27 27 28 29 30 34 35 36 37 38 39 39 41 43 47 52 54 57 58 58 57 57 57 57 57
26 27 26 27 27 29 29 30 31 31 32 33 34 35 36 37 38 39 40 39 41 43 45 47 49 58 57 57 58 59 59 59
25 26 25 26 26 27 27 30 31 33 33 35 35 36 37 39 40 40 41 41 40 41 43 44 47 49 53 58 58 57 61 60

GFSFLT2_sfc_dewp_138.txt.gz
Dewpoint
57 58 60 66 69 69 69 70 70 70 71 71 71 71 71 71 71 71 71 71 72 71 71 70 70 69 69 68 67 68 65 63
51 53 54 58 62 65 69 69 69 69 69 70 70 70 70 70 70 70 71 71 71 71 70 70 69 69 68 68 67 67 66 63
50 49 50 54 57 59 64 66 69 69 69 69 68 69 68 68 68 68 70 70 70 70 69 69 68 68 68 68 67 66 64 62
47 48 48 50 49 56 57 60 64 67 67 69 70 71 71 69 68 68 68 68 68 69 69 68 68 65 65 67 66 64 62 61
43 45 47 47 47 48 50 52 56 62 60 62 65 70 71 71 71 71 70 68 66 67 67 67 66 64 62 67 64 64 62 61
41 43 44 45 44 43 45 46 50 53 55 58 60 62 67 69 70 69 70 71 69 70 70 69 67 66 64 64 66 64 62 61
40 40 41 42 43 44 44 45 46 50 49 54 57 58 58 60 64 68 69 70 70 70 69 69 68 67 66 66 65 65 64 62
39 38 41 41 41 44 44 43 44 47 46 48 52 51 53 53 59 64 66 69 69 69 68 68 68 68 67 66 66 65 65 64
38 38 40 41 41 41 41 40 42 44 42 48 48 48 50 53 55 58 61 64 66 64 62 62 66 67 66 67 67 66 65 64
36 36 39 40 40 39 38 39 41 40 40 44 45 47 51 50 48 51 54 59 61 62 59 59 61 61 60 62 67 66 65 65
35 37 38 39 39 38 39 40 39 38 39 39 42 46 46 45 44 48 52 50 53 59 60 58 57 58 59 61 62 66 66 65
34 35 38 38 36 37 35 36 37 37 37 38 41 41 43 43 43 45 47 46 48 50 58 59 59 56 57 59 59 61 66 66
33 34 37 34 32 33 33 34 34 36 36 39 40 40 42 42 41 43 44 45 46 48 51 55 58 58 57 58 61 63 66 65
32 32 34 33 32 32 32 33 33 35 36 38 39 39 40 40 41 41 43 43 46 48 50 48 52 56 56 59 56 57 62 64
31 32 32 33 34 31 31 32 32 33 34 34 35 37 38 39 41 41 42 43 43 45 47 49 48 52 60 55 53 51 52 58
31 32 31 31 32 30 31 29 28 30 31 32 33 36 36 37 38 39 40 41 43 44 44 46 47 48 53 58 61 56 51 51
31 32 30 31 31 31 29 29 28 28 30 31 32 34 35 35 37 38 38 41 41 43 44 46 46 46 47 52 59 59 59 58
31 31 30 30 30 30 29 28 28 27 28 29 30 31 33 35 36 38 39 40 41 42 42 44 44 46 46 50 54 55 57 57
30 29 29 29 29 28 27 27 27 28 28 29 30 31 31 34 35 36 37 38 41 42 43 43 43 44 46 48 52 54 55 58
30 28 28 28 29 28 27 27 26 28 28 29 30 31 32 34 35 36 36 37 39 41 42 43 43 43 44 46 48 50 53 54

GFSFLT2_sfc_dewp_144.txt.gz
Dewpoint
59 59 59 62 64 63 65 67 68 68 69 69 70 70 70 71 70 71 71 71 71 71 71 71 71 69 69 68 68 68 68 66
55 56 55 57 60 62 64 66 67 67 67 66 67 69 70 70 70 70 70 71 71 71 70 70 70 69 68 68 68 68 67 66
54 53 53 53 55 55 60 62 64 65 64 64 65 67 69 69 68 68 69 69 69 69 69 69 69 69 68 68 68 67 65 64
51 52 52 52 47 53 55 54 55 60 60 61 62 64 67 67 68 67 68 68 68 69 69 69 69 69 68 68 67 66 65 63
47 50 53 52 51 50 50 50 52 55 57 59 58 59 63 62 64 69 69 67 68 67 68 68 68 68 66 67 67 66 64 63
46 48 50 51 51 49 49 48 50 50 52 57 54 55 55 55 57 60 65 69 68 67 68 67 67 67 66 65 67 66 64 63
45 46 48 48 49 49 50 51 49 51 52 53 51 53 52 52 53 54 56 62 67 67 67 66 66 66 66 66 66 65 66 63
45 44 47 47 47 49 50 49 48 49 50 51 52 52 51 50 51 53 52 53 56 63 64 64 64 66 66 66 65 66 65 66
43 44 46 46 46 46 48 47 47 47 49 50 50 51 49 49 49 48 48 50 52 55 59 65 64 63 64 63 65 66 64 62
41 40 44 44 46 46 45 46 46 46 47 47 50 49 47 47 46 46 48 49 50 51 52 53 60 59 59 61 63 63 64 62
39 42 43 43 44 42 43 45 43 42 43 43 47 47 48 46 45 46 47 46 47 48 48 50 51 57 58 57 60 62 62 61
39 40 41 41 40 40 39 39 39 40 40 41 44 44 45 44 44 44 45 44 45 46 48 49 50 51 51 54 56 58 60 60
37 38 40 38 36 36 36 36 36 37 38 41 41 40 42 41 41 41 42 42 43 45 45 46 47 48 49 52 55 57 58 59
37 37 38 37 35 35 36 36 36 37 38 36 37 37 37 36 37 38 38 39 39 41 44 45 46 48 48 48 49 52 55 55
36 37 36 37 37 34 34 34 34 33 33 33 34 34 34 35 35 36 36 38 38 38 40 41 43 46 48 49 48 47 49 54
38 37 35 35 37 35 34 31 30 31 31 31 31 33 33 33 34 35 36 36 37 39 37 40 41 42 45 47 48 49 48 50
39 37 35 34 34 35 33 32 31 30 30 30 30 31 32 33 34 34 33 34 35 37 37 39 39 40 43 44 46 47 47 51
39 36 34 33 34 34 33 32 30 29 28 29 30 30 31 32 33 33 33 34 35 35 37 39 40 40 41 42 43 45 46 48
34 32 30 31 34 33 32 31 30 28 28 29 29 30 31 32 32 33 34 35 36 37 37 37 39 40 41 42 42 43 45 46
30 26 26 30 32 32 31 30 29 29 29 30 31 32 32 32 33 33 34 35 36 37 38 39 39 40 40 43 43 42 42 44

GFSFLT2_sfc_dewp_147.txt.gz
Dewpoint
53 53 54 58 61 63 65 67 66 66 66 66 67 69 69 70 70 70 70 70 70 70 71 71 71 70 68 68 67 68 68 67
50 50 50 50 50 59 62 63 65 64 63 65 64 66 68 68 69 69 69 69 70 69 69 70 70 70 68 67 67 67 67 67
49 49 49 49 47 52 54 59 59 61 60 62 61 62 65 65 67 67 68 68 69 69 69 69 69 69 68 67 67 67 66 66
47 49 49 48 48 49 50 50 52 51 52 55 56 56 57 61 62 65 66 67 68 68 68 68 67 69 69 68 67 67 67 66
46 47 48 47 49 48 49 49 50 49 50 51 52 54 53 54 54 57 59 64 67 67 67 67 68 67 68 68 68 67 66 65
44 45 46 46 48 48 48 48 47 48 49 50 49 52 50 50 51 52 54 58 60 64 66 67 66 66 67 67 67 67 67 66
42 44 45 44 45 46 47 46 45 48 47 49 47 50 49 48 48 50 49 50 54 55 60 64 64 64 65 65 66 67 67 67
42 44 44 43 44 44 44 45 45 46 47 47 46 49 46 46 47 46 47 47 48 50 53 56 59 63 63 64 65 63 62 65
39 42 42 41 43 43 43 44 44 45 45 45 45 46 45 46 45 45 46 46 46 47 48 51 53 59 62 62 63 64 65 64
40 41 41 40 41 41 41 42 43 42 42 43 46 45 46 45 45 44 46 45 46 46 46 48 48 50 56 61 61 62 63 62
37 39 38 39 39 38 39 39 39 39 40 40 39 41 42 41 42 43 43 43 44 45 45 47 46 48 49 51 58 61 61 62
36 38 38 37 37 37 37 37 37 38 38 35 37 36 36 36 37 38 39 39 40 40 40 42 45 46 47 47 50 55 60 60
35 36 37 35 35 34 34 34 34 35 34 34 34 33 34 33 35 35 37 36 37 37 38 39 41 45 46 48 49 52 56 59
35 35 35 35 35 34 34 33 34 34 33 32 32 32 33 32 33 33 34 36 37 36 35 37 39 41 44 46 45 46 52 56
35 34 34 35 34 34 33 32 31 31 30 30 30 31 31 32 32 34 34 34 34 34 36 35 35 39 42 44 45 45 48 51
35 35 33 32 35 33 32 30 29 30 30 30 30 30 31 32 33 33 32 33 33 33 34 36 37 37 39 41 44 44 46 46
35 34 32 32 34 33 31 30 30 29 29 29 29 30 31 31 32 32 32 33 33 34 35 35 37 37 37 39 40 43 44 48
33 32 30 32 33 32 30 29 28 28 28 28 29 30 31 31 31 31 33 33 34 34 35 36 37 37 39 39 39 41 43 45
28 27 28 31 31 31 30 28 28 28 29 29 29 29 29 30 31 30 31 33 34 35 36 37 37 37 38 38 40 41 42 43
25 25 28 30 31 30 29 28 28 29 29 30 29 30 31 32 33 30 31 34 34 35 37 35 37 38 39 39 40 42 43 42

GFSFLT2_sfc_dewp_150.txt.gz
Dewpoint
49 50 52 55 59 61 61 64 63 62 63 63 63 66 66 68 68 69 69 70 70 70 70 70 69 70 69 68 66 67 67 67
48 48 49 49 49 57 58 59 59 59 59 59 59 59 59 62 62 64 65 67 69 69 69 69 69 69 69 68 66 67 66 67
47 47 47 48 47 50 52 53 53 54 54 54 56 54 55 56 57 58 59 62 64 67 68 68 67 67 68 68 67 67 66 67
46 46 46 47 46 48 48 48 48 49 52 49 53 52 52 52 53 54 57 58 58 61 65 67 67 67 68 68 68 67 66 66
45 45 45 46 46 47 47 48 47 48 49 48 49 50 50 48 48 51 52 53 54 54 54 62 66 66 67 67 68 68 67 66
44 43 43 44 45 45 46 45 45 46 47 47 47 48 46 47 47 47 47 49 50 51 53 55 57 61 65 65 67 67 67 67
43 42 41 43 43 44 44 45 44 45 46 44 47 46 44 46 47 46 46 46 47 48 49 51 52 54 59 64 64 66 67 67
42 40 40 41 41 41 42 43 43 42 42 43 45 45 44 45 44 44 44 45 45 46 46 48 50 53 54 59 62 64 64 65
41 40 39 39 39 39 40 40 41 40 41 41 42 42 40 42 43 43 43 44 44 44 45 47 48 49 50 54 58 62 62 63
39 38 38 38 37 38 38 39 39 39 39 38 39 38 37 37 38 40 39 40 40 42 42 41 43 45 45 47 52 58 61 63
37 37 36 36 36 37 37 37 37 38 35 37 35 35 36 34 36 37 38 37 39 39 38 39 39 41 45 46 47 51 56 61
36 37 36 35 36 36 35 35 36 35 34 33 32 33 33 33 34 35 36 36 36 36 36 36 37 40 40 42 46 47 49 55
35 35 35 34 34 33 33 32 33 32 32 32 31 32 32 31 32 33 35 35 35 36 35 35 36 38 39 42 44 48 49 53
34 34 34 34 34 33 33 32 32 32 31 30 30 30 31 31 32 32 33 33 33 33 33 34 33 35 36 40 41 44 47 47
34 33 33 34 33 32 31 31 30 30 29 29 30 30 31 32 32 31 31 32 32 32 32 31 33 35 37 39 40 43 44 49
34 32 32 33 32 31 30 29 28 29 29 29 29 30 31 31 32 30 31 32 32 33 33 34 34 33 36 34 37 41 42 43
32 31 32 33 31 30 29 28 29 29 29 29 29 29 30 30 32 29 30 32 32 33 33 34 35 35 35 36 36 38 41 43
30 30 31 32 30 30 29 28 27 27 28 28 28 28 29 30 31 30 30 31 32 33 34 35 36 36 36 36 36 37 38 42
27 29 30 31 30 29 28 28 27 27 28 28 27 28 30 30 30 30 30 32 33 34 35 35 36 36 37 37 38 38 39 40
26 28 29 30 29 28 28 28 28 28 28 28 28 30 30 31 30 29 29 31 31 33 33 33 35 34 37 39 39 39 40 41

GFSFLT2_sfc_dewp_153.txt.gz
Dewpoint
48 49 51 54 58 59 59 58 58 56 57 57 57 57 57 58 59 60 61 62 64 67 69 69 70 69 69 68 67 67 66 67
47 47 48 47 49 54 54 55 56 53 53 55 54 54 54 54 55 56 58 58 59 61 62 67 68 68 68 67 67 67 66 66
45 46 46 46 47 49 50 52 53 52 49 53 52 50 51 51 52 53 53 54 55 56 57 61 66 67 67 67 67 66 66 66
44 44 45 45 45 46 46 46 47 48 46 47 50 48 48 48 49 50 50 51 52 52 53 55 57 61 65 67 67 67 66 66
43 43 43 44 44 45 44 45 46 46 46 46 48 46 46 46 46 46 46 48 47 48 49 50 53 54 57 62 65 67 67 67
41 41 42 42 43 43 44 43 43 43 44 46 45 44 44 45 44 45 45 46 46 47 48 49 50 51 53 55 61 64 66 67
39 40 40 40 41 41 41 41 41 42 42 43 43 42 41 43 43 44 44 43 44 44 46 47 48 50 52 53 55 58 63 66
39 39 39 38 38 39 40 40 40 41 40 40 39 38 37 37 38 40 39 39 41 42 43 45 46 49 48 50 52 55 59 63
38 38 37 37 37 38 38 38 39 38 38 37 36 36 35 35 36 36 36 36 38 39 39 39 39 41 44 47 49 50 53 59
37 37 36 36 36 37 36 37 37 36 37 35 35 35 34 33 34 35 35 35 36 36 36 36 37 37 38 41 46 49 50 54
35 35 35 35 35 36 36 36 35 35 34 32 32 34 34 33 33 34 35 35 35 36 35 36 35 35 36 38 40 43 46 47
35 35 35 34 35 35 34 34 34 33 32 31 32 32 32 32 32 33 34 34 34 34 34 34 34 34 36 36 37 39 43 47
34 34 34 33 33 32 32 32 31 31 31 30 30 31 32 31 32 32 32 31 32 33 33 32 32 33 32 36 37 42 43 43
34 33 33 33 32 32 32 30 31 31 31 30 30 31 31 30 31 31 30 31 31 32 32 32 32 33 33 33 35 41 44 44
33 33 33 32 31 30 30 30 30 29 29 29 29 30 30 30 30 31 29 30 32 32 32 34 32 33 33 34 35 39 38 46
32 32 32 31 31 29 28 28 27 28 28 29 29 29 29 31 30 31 29 30 31 31 32 33 34 32 33 33 35 36 37 38
31 32 32 30 30 29 28 27 28 28 29 28 28 28 29 29 30 30 29 30 31 32 32 32 35 34 34 34 34 36 37 38
30 31 31 30 29 28 28 26 26 26 27 27 27 28 30 29 28 28 27 30 30 31 34 34 35 35 35 36 35 35 36 39
30 30 30 29 28 28 27 26 27 26 26 27 26 28 28 29 27 26 28 29 28 31 31 31 32 32 34 36 37 38 38 37
29 30 29 28 27 26 27 26 26 27 26 26 26 29 28 28 28 28 27 27 27 28 29 29 30 30 33 34 35 39 39 39